Погода в Норваш-Шигалях

Россия / Чувашская Республика     55°01′55″N   47°27′31″E
темп.,
°C
ветер,
м/с
пор.,
м/с
влажн.,
%
обл.,
%
осадки,
мм/ч
давл.,
гПа
погр.,
м
12 августа, пт
пт1200:00+15ссв11804 0.0 102411
03:00+14с118475 0.0 102410
06:00+16зсз11785 0.0 102550
09:00+21зсз2260100 0.0 1025781
12:00+23сз2347100 0.0 10241403
15:00+25сз344222 0.0 10221605
18:00+22сз23595 0.0 102266
21:00+17сз22685 0.0 102211
13 августа, сб
сб1300:00+16зсз22735 0.0 102213
03:00+15з227682 0.0 102218
06:00+16зсз24754 0.0 1023109
09:00+22сз34555 0.0 1022516
12:00+25ссз334899 0.0 10221271
15:00+25с334998 0.0 10211483
18:00+23с2366100 0.0 102168
21:00+19с1172100 0.0 102111
14 августа, вс
вс1400:00+18св2277100 0.0 102111
03:00+17в2275100 0.0 102111
06:00+18в2273100 0.0 102260
09:00+22в2358100 0.0 1022471
12:00+25в344690 0.0 10211298
15:00+25всв4444100 0.0 10211565
18:00+22всв246292 0.0 102176
21:00+19в226398 0.0 102111
15 августа, пн
пн1500:00+17юв226879 0.0 102211
03:00+16вюв117346 0.0 102211
06:00+18ююв11735 0.0 102322
09:00+23всв115565 0.0 1023552
12:00+26св22475 0.0 10221458
15:00+26ссв324426 0.0 10222014
18:00+24св35600 0.0 1022140
21:00+19всв22760 0.0 102314
16 августа, вт
вт1600:00+18вюв12740 0.0 102311
03:00+16юв11750 0.0 102411
06:00+18в22730 0.0 102567
09:00+22в34500 0.0 1025618
12:00+25в44410 0.0 10251493
15:00+26в45384 0.0 10241776
18:00+23вюв36535 0.0 1024139
21:00+19в225851 0.0 102513